Volver al catálogo

FENGYUN 1C DEB

ActivoSSO
NORAD 31455·DEBRIS·🇨🇳 China

Lanzado May 10, 1999 desde Taiyuan Satellite Launch Center

Loading…

Próximos Pases (próximas 24 horas)

TLE

ActualizadoSource: Space-Track

Época: Sep 14, 2026, 05:05 UTC

1 31455U 99025BUT 26257.21218518  .00000373  00000-0  18355-3 0  9991
2 31455  98.6003 238.9111 0216925 345.2143  14.2750 14.11718050999901

Sigue FENGYUN 1C DEB en tiempo real con AllMySat

Download on the App Store